This is the latest recevied weather packets stored in our database for station/object KH6HHG. If no packets are shown the sender has not sent any weather packets the latest 10 day(s).
| Time | Temp. | Humidity | Pressure | Rain* | Wind** | Luminosity | Snow |
|---|---|---|---|---|---|---|---|
| 1777335247 | 24.44° C | 74% | 1011.7 hPa | 0 mm | - | - | - |
| 1777334947 | 24.44° C | 75% | 1011.8 hPa | 0 mm | - | - | - |
| 1777334647 | 24.44° C | 76% | 1011.7 hPa | 0 mm | - | - | - |
| 1777334347 | 24.44° C | 77% | 1011.8 hPa | 0 mm | - | - | - |
| 1777334047 | 24.44° C | 76% | 1011.8 hPa | 0 mm | - | - | - |
| 1777333747 | 24.44° C | 75% | 1011.8 hPa | 0 mm | - | - | - |
| 1777333447 | 24.44° C | 76% | 1011.9 hPa | 0 mm | - | - | - |
| 1777333147 | 24.44° C | 75% | 1011.9 hPa | 0 mm | - | - | - |
| 1777332847 | 24.44° C | 76% | 1011.9 hPa | 0 mm | - | - | - |
| 1777332547 | 24.44° C | 76% | 1012 hPa | 0 mm | - | - | - |
| 1777332247 | 25° C | 76% | 1012.1 hPa | 0 mm | - | - | - |
| 1777331947 | 25° C | 74% | 1012.1 hPa | 0 mm | - | - | - |
| 1777331647 | 25° C | 71% | 1012 hPa | 0 mm | - | - | - |
| 1777331347 | 25° C | 71% | 1011.9 hPa | 0 mm | - | - | - |
| 1777331047 | 25° C | 72% | 1011.9 hPa | 0 mm | - | - | - |
| 1777330747 | 25° C | 73% | 1012 hPa | 0 mm | - | - | - |
| 1777330447 | 25° C | 71% | 1012.2 hPa | 0 mm | - | - | - |
| 1777330147 | 25° C | 73% | 1012.1 hPa | 0 mm | - | - | - |
| 1777329847 | 25° C | 71% | 1012.1 hPa | 0 mm | - | - | - |
| 1777329547 | 25° C | 72% | 1012.2 hPa | 0 mm | - | - | - |
| 1777329247 | 25° C | 71% | 1012.3 hPa | 0 mm | - | - | - |
| 1777328947 | 24.44° C | 70% | 1012.3 hPa | 0 mm | - | - | - |
| 1777328647 | 25° C | 72% | 1012.3 hPa | 0 mm | - | - | - |
| 1777328347 | 25.56° C | 70% | 1012.4 hPa | 0 mm | - | - | - |
| 1777328047 | 25.56° C | 67% | 1012.3 hPa | 0 mm | - | - | - |
* Rain latest hour (hover to see other rain measurements)
** Current wind speed in m/s (hover to see current wind gust speed)